Flag for Canada Weather past 2 weeks in Thunder Bay, Ontario, Canada

Now
19 °F

Light snow. More clouds than sun.


Feels Like: 19 °F
Forecast: N/A
Wind: No wind

Location: Thunder Bay

Current Time: Dec 19, 2014 at 5:07:14 PM

Latest Report: Dec 19, 2014 at 4:00 PM


Visibility: 20 mi

Pressure: 30.31 "Hg

Humidity: 86%

Dew point: 16 °F

Location of Thunder BayLocation

Historic Weather in Thunder Bay — Graph

°F

Thunder Bay temperature yesterday

Maximum temperature yesterday: 19 °F (at 4:00 PM)
Minimum temperature yesterday: -6 °F (at 8:00 AM)
Average temperature yesterday: 3 °F

Past Weeks' High & Low Weather Summary

 TemperatureHumidityPressure
High37 °F (Dec 13, 3:00 PM)100% (Dec 8, 6:54 AM)30.71 "Hg (Dec 8, 6:54 AM)
Low-6 °F (Dec 18, 8:00 AM)45% (Dec 6, 2:00 PM)29.77 "Hg (Dec 15, 9:00 AM)
Average22 °F86%30.22 "Hg
* Reported Dec 4 3:00 PM — Dec 19 3:00 PM, Thunder Bay, Weather by CustomWeather, © 2014

Note: Actual official high and low records may vary slightly from our data, if they occured in-between our weather recording intervals... More about our weather records

Advertising

Thunder Bay weather history for previous 24 hours

 ConditionsComfort  
Time TempWeatherWind HumidityBarometerVisibility
3:00 PM
Dec 19
18 °FLight snow. Overcast.3 mph86%30.30 "Hg20 mi
2:00 PM16 °FOvercast.5 mph86%30.32 "Hg20 mi
1:00 PM14 °FOvercast.5 mph85%30.33 "Hg20 mi
12:00 PM10 °FOvercast.5 mph92%30.36 "Hg20 mi
11:00 AM9 °FOvercast.No wind85%30.38 "Hg20 mi
10:00 AM5 °FOvercast.3 mph85%30.38 "Hg20 mi
9:00 AM1 °FPartly sunny.2 mph92%30.38 "Hg20 mi
8:00 AM0 °FPassing clouds.5 mph84%30.39 "Hg15 mi
7:00 AM-2 °FClear.3 mph84%30.38 "Hg15 mi
6:00 AM-2 °FClear.5 mph92%30.37 "Hg15 mi
5:00 AM0 °FClear.5 mph84%30.37 "Hg15 mi
4:00 AM0 °FClear.5 mph84%30.37 "Hg15 mi
3:00 AM-2 °FClear.6 mph92%30.38 "Hg15 mi
2:00 AM0 °FClear.6 mph84%30.37 "Hg15 mi
1:00 AM0 °FClear.5 mph92%30.37 "Hg15 mi
12:00 AM0 °FClear.6 mph92%30.38 "Hg15 mi
11:00 PM
Dec 18
1 °FClear.6 mph85%30.37 "Hg15 mi
10:00 PM0 °FClear.5 mph92%30.37 "Hg15 mi
9:00 PM5 °FClear.5 mph85%30.37 "Hg15 mi
8:00 PM5 °FClear.7 mph85%30.38 "Hg15 mi
7:00 PM9 °FClear.6 mph85%30.37 "Hg15 mi
6:00 PM10 °FPassing clouds.5 mph92%30.37 "Hg15 mi
5:00 PM16 °FPassing clouds.3 mph62%30.36 "Hg20 mi
Weather by CustomWeather, © 2014

See weather overviewHow to use our weather pages